Regional Weather Roundup
Issued by NWS

Home | Current Version | Previous Version | Graphics & Text | Print | Product List | Glossary On
Versions: 1 2 3 4 5 6 7 8 9 10 11 12 13 14 15 16 17 18 19 20 21 22 23 24 25 26 27 28 29 30 31 32 33 34 35 36 37 38 39 40 41 42 43 44 45 46 47 48 49 50
353
ASUS45 KTFX 300110
RWRMT
MONTANA REGIONAL WEATHER ROUNDUP
NATIONAL WEATHER SERVICE GREAT FALLS MT
700 PM MDT FRI APR 29 2016

NOTE: "FAIR" INDICATES FEW OR NO CLOUDS BELOW 12000 FEET WITH NO
SIGNIFICANT WEATHER AND/OR OBSTRUCTIONS TO VISIBILITY.

MTZ001>007-043-300200-
WEST OF THE DIVIDE

CITY           SKY/WX    TMP DP  RH WIND       PRES   REMARKS
KALISPELL      CLOUDY    52  31  44 VRB3      29.94R
MISSOULA       PTSUNNY   51  34  52 N13       29.94R
BUTTE          LGT RAIN  41  35  79 NW8       29.90R
MULLAN PASS    LGT SNOW  33  31  92 NW6       29.95R FOG     WCI  28
ANACONDA         N/A     45  34  65 CALM      29.90R
DEER LODGE       N/A     45  34  65 NW8       29.91R
EUREKA           N/A     52  34  50 S5        29.96R
HAMILTON         N/A     52  32  46 NW3       29.92R
LIBBY            N/A     52  36  54 CALM      29.96R
PLAINS           N/A     56  34  43 N1        29.95R
$$

MTZ008-052>055-300200-
SOUTHWEST MONTANA

CITY           SKY/WX    TMP DP  RH WIND       PRES   REMARKS
BOZEMAN        PTSUNNY   50  32  50 E7        29.89R
DILLON         CLOUDY    50  31  48 NW5       29.84R
ENNIS          MOSUNNY   48  32  53 NW8G15    29.89S
THREE FORKS      N/A     51  19  28 SE10      29.89R
TWIN BRIDGES     N/A     54  29  38 NW12      29.86R
$$

MTZ009-010-012-014-046-048-049-054-300200-
EAST SLOPES AND CENTRAL MONTANA

CITY           SKY/WX    TMP DP  RH WIND       PRES   REMARKS
CUT BANK       CLOUDY    48  32  53 E8        29.98R
GREAT FALLS    CLOUDY    50  34  54 NE13      29.94R
MALMSTROM AFB  CLOUDY    49  36  60 E12       29.95R
HELENA         CLOUDY    53  32  44 N14       29.88S
CHOTEAU          N/A     48  34  57 E16G22    29.97R
CONRAD           N/A     48  40  74 NE14      30.00R
$$

MTZ011-013-016-021-045-047-050-051-300200-
NORTH CENTRAL MONTANA

CITY           SKY/WX    TMP DP  RH WIND       PRES   REMARKS
HAVRE          CLOUDY    51  36  56 SE13      30.02R
LEWISTOWN      CLOUDY    46  32  58 E16       29.99R
N BAR RANCH    CLOUDY    43  32  65 SE10      30.02F
CHINOOK          N/A     52  37  58 E9G16     30.04R
$$

MTZ017>020-022>027-061-062-300200-
NORTHEAST MONTANA

CITY           SKY/WX    TMP DP  RH WIND       PRES   REMARKS
GLASGOW        CLOUDY    54  35  48 SE13      30.07R
JORDAN           N/A     51  38  60 SE13      30.04S
SIDNEY         MOCLDY    57  30  35 E10       30.09F
WOLF POINT     CLOUDY    57  32  38 SE9G16    30.09R
PLENTYWOOD       N/A     57  27  30 SE12      30.11S
POPLAR           N/A     55  30  38 E10       30.09S
SCOBEY           N/A     54  24  31 SE12      30.09R
$$

MTZ028>42-056>058-300200-
SOUTHCENTRAL AND SOUTHEAST MONTANA

CITY           SKY/WX    TMP DP  RH WIND       PRES   REMARKS
BAKER          CLOUDY    49  35  58 E6        30.07S
BILLINGS       CLOUDY    48  33  56 E13       29.98R
LIVINGSTON     CLOUDY    44  32  62 E18       29.93R
MILES CITY     CLOUDY    51  35  54 SE10      30.05R
EKALAKA          N/A     45  32  60 E8        30.02F
FORSYTH          N/A     48  37  66 E14       30.03R
LAUREL           N/A     49  28  44 NE8       29.96S
ROUNDUP          N/A     48  32  54 NE1       29.92S
$$

REGIONAL REPORTS...DAKOTAS

CITY           SKY/WX    TMP DP  RH WIND       PRES   REMARKS
WILLISTON      CLEAR     59  26  28 SE12      30.11S
MINOT          CLEAR     61  24  24 E9        30.14S
DICKINSON      CLEAR     53  30  41 E12       30.06S
BEACH          CLOUDY    50  32  50 SE6       30.10S
CROSBY           N/A     57  21  24 SE13      30.16R
WATFORD CITY     N/A     57  25  28 E13       30.10F
BISMARCK       CLEAR     58  33  39 E10       30.09F
GRAND FORKS    PTCLDY    59  30  33 NE15      30.16S
FARGO          PTCLDY    62  32  32 NE10      30.09F
BUFFALO SD       N/A     50  33  52 E6        29.98F
RAPID CITY     CLOUDY    43  36  76 E9        30.03R
$$

REGIONAL REPORTS...WYOMING/IDAHO/WASHINGTON

CITY           SKY/WX    TMP DP  RH WIND       PRES   REMARKS
GILLETTE       CLOUDY    42  37  82 E10       29.98R
SHERIDAN       CLOUDY    46  35  65 E8        29.97S
BUFFALO WY       N/A    N/A N/A N/A MISG      29.99R
CODY           CLOUDY    45  28  53 CALM      29.94S
YELLOWSTONE LA   N/A     36  26  67 CALM      29.90R
IDAHO FALLS    PTSUNNY   49  36  61 SW10      29.84R
SALMON         CLOUDY    48  36  61 N7        29.86R
BOISE          PTSUNNY   59  36  42 N17G25    29.86R
SPOKANE        LGT RAIN  52  41  66 W6        29.97R
$$

REGIONAL REPORTS...ALBERTA

CITY           SKY/WX    TMP DP  RH WIND       PRES   REMARKS
EDMONTON       SUNNY     59  32  36 S10       29.98S
CALGARY        PTSUNNY   48  32  53 SE13G22   29.99R
LETHBRIDGE     CLOUDY    48  32  53 SE7       30.00R
MEDICINE HAT   CLOUDY    52  37  58 S5        30.03R
CARDSTON         N/A     46  30  53 SE5         N/A
MILK RIVER       N/A     48  34  57 SE12        N/A
ONEFOUR          N/A     48  36  61 SE16        N/A
$$

REGIONAL REPORTS...SASKATCHEWAN

CITY           SKY/WX    TMP DP  RH WIND       PRES   REMARKS
SWIFT CURRENT  MOSUNNY   57  21  24 SE17G25   30.06R
REGINA         MOSUNNY   59  14  17 SE18      30.15R
SASKATOON      SUNNY     63  18  17 SE15G22   30.13S
CYPRESS HILLS    N/A     45  30  57 SE8G17      N/A
ROCKGLEN         N/A     54  27  35 SE15G22     N/A
ASSINIBOIA       N/A     63  27  25 S15G21      N/A
$$




USA.gov is the U.S. government's official web portal to all federal, state and local government web resources and services.